Regional Weather Roundup
Issued by NWS

Home | Current Version | Previous Version | Graphics & Text | Print | Product List | Glossary Off
Versions: 1 2 3 4 5 6 7 8 9 10 11 12 13 14 15 16 17 18 19 20 21 22 23 24 25 26 27 28 29 30 31 32 33 34 35 36 37 38 39 40 41 42 43 44 45 46 47 48 49 50

000
ASUS43 KTOP 270308
RWRKS

WEATHER ROUNDUP FOR KANSAS
NATIONAL WEATHER SERVICE GOODLAND KS
1000 PM CDT THU MAR 26 2015

NOTE:  "FAIR" INDICATES FEW OR NO CLOUDS BELOW 12,000 FEET WITH NO
SIGNIFICANT WEATHER AND/OR OBSTRUCTIONS TO VISIBILITY.

KSZ001>006-013>018-027>032-041>047-270400-
NORTHWEST KANSAS

CITY           SKY/WX    TMP DP  RH WIND       PRES   REMARKS
GOODLAND       CLOUDY    48  31  51 W7        30.15R
HAYS           PTCLDY    48  27  43 N18       30.09R
HILL CITY      CLOUDY    50  28  42 N21G31    30.13R
RUSSELL        CLEAR     47  29  49 N12       30.06R
$$

KSZ061>065-074>080-084>089-270400-
SOUTHWEST KANSAS

CITY           SKY/WX    TMP DP  RH WIND       PRES   REMARKS
DODGE CITY     MOCLDY    52  28  39 NW8       30.11R
ELKHART          N/A     48  25  40 W3          N/A
GARDEN CITY    MOCLDY    48  30  49 N10       30.12R
GREAT BEND     PTCLDY    50  27  40 N13       30.08R
LIBERAL        PTCLDY    45  27  49 N7        30.14R
PRATT          PTCLDY    50  32  50 NW9       30.07R
$$

KSZ066>073-081>083-090>101-270400-
SOUTHEAST KANSAS

CITY           SKY/WX    TMP DP  RH WIND       PRES   REMARKS
CHANUTE        CLOUDY    48  31  51 SE6       30.04F
COFFEYVILLE    CLOUDY    47  33  58 SE6       30.05F
HUTCHINSON     PTCLDY    47  35  63 NW3       30.03R
MEDICINE LODGE   N/A     56  32  40 NW6       30.05R
NEWTON         PTCLDY    46  32  57 S5        30.04R
PARSONS        CLOUDY    48  31  51 SE5       30.05F
WICHITA INTL   MOCLDY    48  31  51 SW5       30.03R
WICHITA JABRA  PTCLDY    49  32  52 SW9       30.02R
WINFIELD       PTCLDY    43  32  65 S5        30.04S
$$

KSZ007>012-019>026-033>040-048>060-102>105-270400-
NORTHEAST KANSAS

CITY           SKY/WX    TMP DP  RH WIND       PRES   REMARKS
CONCORDIA      CLOUDY    38  35  89 NE16G26   30.13R WCI  29
EMPORIA        CLOUDY    46  38  73 NE13      30.08R
LAWRENCE       CLOUDY    45  30  55 N12       30.10R
MANHATTAN      CLOUDY    42  36  79 NE18      30.11R
MARYSVILLE     LGT RAIN  34  34 100 NE14G21   30.15R WCI  24
OLATHE IND     CLOUDY    43  31  62 NE7       30.09F
OLATHE EXE     CLOUDY    47  28  47 N8        30.08F
SALINA         MOCLDY    50  35  56 NE20      30.06R
TOPEKA BILLARD CLOUDY    45  33  63 N17       30.13R
TOPEKA FORBES  CLOUDY    48  32  53 N10G18    30.11R
$$


USA.gov is the U.S. government's official web portal to all federal, state and local government web resources and services.